Location: Unspecified
(0.0000°N, 0.0000°E)
Time: 04:56:29
(UTC+00:00)

Vanguard 1 - Pass Details

Date: 11 December 2023
Orbit: 653 x 3826 km, 34.3° (Epoch: 22 February)

Event Time Altitude Azimuth Distance (km) Brightness Sun altitude
Rises 11:47:02 0° 222° (SW) 2,985 12.8 67.0°
Reaches altitude 10° 11:49:10 10° 215° (SW) 2,147 12.3 67.0°
Maximum altitude 11:53:44 48° 140° (SE) 1,093 11.7 67.0°
Drops below altitude 10° 12:00:30 10° 67° (ENE) 3,158 12.7 66.9°
Sets 12:04:17 0° 62° (ENE) 4,586 13.4 66.8°
